This is the latest recevied weather packets stored in our database for station/object N4CRH-13. If no packets are shown the sender has not sent any weather packets the latest 10 day(s).
| Time | Temp. | Humidity | Pressure | Rain* | Wind** | Luminosity | Snow |
|---|---|---|---|---|---|---|---|
| 1777986391 | 0.56° C | 99% | 1291.5 hPa | 0 mm | - | 7 W/m² | - |
| 1777984571 | 1.11° C | 99% | 1290.6 hPa | 0 mm | - | 5 W/m² | - |
| 1777984268 | 1.11° C | 99% | 1290.4 hPa | 0 mm | - | 4 W/m² | - |
| 1777983965 | 1.67° C | 99% | 1290.4 hPa | 0 mm | - | 3 W/m² | - |
| 1777983662 | 1.67° C | 99% | 1290.4 hPa | 0 mm | - | 2 W/m² | - |
| 1777981227 | 2.78° C | 99% | 1290.2 hPa | 0 mm | - | 0 W/m² | - |
| 1777980924 | 3.33° C | 99% | 1290.1 hPa | 0 mm | - | 0 W/m² | - |
| 1777980621 | 3.33° C | 99% | 1290.1 hPa | 0 mm | - | 0 W/m² | - |
| 1777980015 | 3.33° C | 98% | 1290.1 hPa | 0 mm | - | 0 W/m² | - |
| 1777979708 | 3.33° C | 98% | 1290 hPa | 0 mm | - | 0 W/m² | - |
| 1777979405 | 3.89° C | 98% | 1289.8 hPa | 0 mm | - | 0 W/m² | - |
| 1777979101 | 3.89° C | 97% | 1289.8 hPa | 0 mm | - | 0 W/m² | - |
| 1777978798 | 3.89° C | 97% | 1289.8 hPa | 0 mm | - | 0 W/m² | - |
| 1777977282 | 5.56° C | 96% | 1289.4 hPa | 0 mm | - | 0 W/m² | - |
| 1777976979 | 5.56° C | 96% | 1289.2 hPa | 0 mm | - | 0 W/m² | - |
| 1777976676 | 5.56° C | 96% | 1289.1 hPa | 0 mm | - | 0 W/m² | - |
| 1777976373 | 5.56° C | 96% | 1289.2 hPa | 0 mm | - | 0 W/m² | - |
| 1777976066 | 5.56° C | 96% | 1289 hPa | 0 mm | - | 0 W/m² | - |
| 1777975762 | 5.56° C | 96% | 1289.1 hPa | 0 mm | - | 0 W/m² | - |
| 1777975459 | 5° C | 96% | 1289 hPa | 0 mm | - | 0 W/m² | - |
| 1777975155 | 5° C | 96% | 1288.7 hPa | 0 mm | - | 0 W/m² | - |
| 1777974852 | 5.56° C | 96% | 1288.7 hPa | 0 mm | - | 0 W/m² | - |
| 1777974548 | 5° C | 96% | 1289.1 hPa | 0 mm | - | 0 W/m² | - |
| 1777974246 | 5° C | 96% | 1289 hPa | 0 mm | - | 0 W/m² | - |
| 1777973941 | 5° C | 95% | 1288.6 hPa | 0 mm | - | 0 W/m² | - |
* Rain latest hour (hover to see other rain measurements)
** Current wind speed in m/s (hover to see current wind gust speed)